Location: Newark
(41.0400°S, 62.7845°W)
Time: 15:56:03
(UTC+00:00)

N. Korean satellite - Pass Details

Date: 24 October 2021
Orbit: 447 x 495 km, 97.3° (Epoch: 30 November)

Event Time Altitude Azimuth Distance (km) Brightness Sun altitude
Rises 07:30:56 0° 58° (ENE) 2,508 10.5 -17.5°
Reaches altitude 10° 07:33:59 10° 88° (E) 1,632 10.0 -17.0°
Maximum altitude 07:35:29 12° 114° (ESE) 1,489 10.2 -16.7°
Drops below altitude 10° 07:36:59 10° 139° (SE) 1,632 10.4 -16.5°
Sets 07:40:02 0° 169° (S) 2,510 10.9 -16.0°
